Torna al catalogo

NINGXIA-1 2

AttivoScienzaLEO
NORAD 44780·PAYLOAD·🇨🇳 China

Lanciato Nov 13, 2019 da Taiyuan Satellite Launch Center

Loading…

Prossimi Passaggi (prossime 24 ore)

TLE

AggiornatoSource: Space-Track

Epoca: Sep 14, 2026, 14:16 UTC

1 44780U 19076B   26257.59483880  .00000005  00000-0  87374-4 0  9991
2 44780  45.0079 140.6701 0006449 221.4078 138.6268 14.02128052350407

Traccia NINGXIA-1 2 in tempo reale con AllMySat

Download on the App Store